Tekamah, NE

4:57 AM CST on January 18, 2018 (GMT -0600)
Tekamah

Weather History for KTQE - November, 2014

Change the Weather History Date:

Tuesday, November 4, 2014

  Actual Average Record
Temperature  
Mean Temperature 50 °F -  
Max Temperature 64 °F 52 °F 75 °F (1975)
Min Temperature 34 °F 29 °F -4 °F (1991)
Degree Days  
Heating Degree Days 15    
Moisture  
Dew Point 32 °F    
Average Humidity 62    
Maximum Humidity 89    
Minimum Humidity 26    
Precipitation  
Precipitation 0.00 in - - ()
Sea Level Pressure  
Sea Level Pressure 30.09 in    
Wind  
Wind Speed 10 mph (WSW)    
Max Wind Speed 20 mph    
Max Gust Speed 28 mph    
Visibility 10 miles    
Events      
Averages and records for this station are not official NWS values.
T = Trace of Precipitation, MM = Missing Value Source: NWS Daily Summary

Daily Weather History Graph

Daily Weather History Graph

Search for Another Location

Airport or City:

Trip Planner

Search our weather history database for the weather conditions in past years. The results will help you decide how hot, cold, wet, or windy it might be!

Date:

Astronomy

Nov. 04, 2014 Rise Set
Actual Time 7:00 AM CST 5:15 PM CST
Civil Twilight 6:31 AM CST 5:44 PM CST
Nautical Twilight 5:58 AM CST 6:17 PM CST
Astronomical Twilight 5:25 AM CST 6:49 PM CST
Moon 4:04 PM CST (11/4) 4:17 AM CST (11/4)
Length of Visible Light 11h 13m
Length of Day
10h 14m
Waxing Gibbous, 94% of the Moon is Illuminated
Nov 4
Waxing Gibbous
Nov 6
Full
Nov 14
Last Quarter
Nov 22
New
Nov 29
First Quarter

Hourly Weather History & Observations

Time (CST) Temp. Windchill Dew Point Humidity Pressure Visibility Wind Dir Wind Speed Gust Speed Precip Events Conditions
12:54 AM 42.1 °F 37.7 °F 37.0 °F 82% 30.04 in 10.0 mi WNW 6.9 mph - N/A   Clear
1:54 AM 41.0 °F 35.2 °F 37.0 °F 86% 30.06 in 10.0 mi West 9.2 mph - N/A   Clear
2:54 AM 39.9 °F 35.8 °F 36.0 °F 86% 30.09 in 10.0 mi WSW 5.8 mph - N/A   Clear
3:54 AM 39.9 °F 32.9 °F 36.0 °F 86% 30.08 in 10.0 mi West 11.5 mph - N/A   Clear
4:54 AM 39.9 °F 33.4 °F 35.1 °F 83% 30.10 in 10.0 mi West 10.4 mph - N/A   Clear
5:54 AM 37.0 °F 30.4 °F 33.1 °F 86% 30.11 in 10.0 mi West 9.2 mph - N/A   Clear
6:54 AM 36.0 °F 29.6 °F 33.1 °F 89% 30.13 in 10.0 mi West 8.1 mph - N/A   Clear
7:54 AM 36.0 °F 29.0 °F 32.0 °F 86% 30.15 in 10.0 mi WSW 9.2 mph - N/A   Clear
8:54 AM 43.0 °F 37.2 °F 35.1 °F 74% 30.17 in 10.0 mi WSW 10.4 mph - N/A   Clear
9:54 AM 46.9 °F - 36.0 °F 66% 30.16 in 10.0 mi SW 6.9 mph - N/A   Clear
10:54 AM 52.0 °F - 36.0 °F 54% 30.14 in 10.0 mi West 10.4 mph - N/A   Clear
11:54 AM 57.0 °F - 36.0 °F 45% 30.11 in 10.0 mi WSW 13.8 mph - N/A   Clear
12:54 PM 61.0 °F - 36.0 °F 39% 30.08 in 10.0 mi WSW 16.1 mph - N/A   Clear
1:54 PM 64.9 °F - 30.9 °F 28% 30.06 in 10.0 mi West 19.6 mph 27.6 mph N/A   Clear
2:54 PM 64.9 °F - 28.9 °F 26% 30.05 in 10.0 mi West 19.6 mph 25.3 mph N/A   Clear
3:54 PM 64.0 °F - 28.0 °F 26% 30.05 in 10.0 mi West 16.1 mph 24.2 mph N/A   Clear
4:54 PM 60.1 °F - 28.9 °F 31% 30.05 in 10.0 mi WSW 9.2 mph - N/A   Clear
5:54 PM 50.0 °F - 27.0 °F 41% 30.06 in 10.0 mi SW 6.9 mph - N/A   Clear
6:54 PM 46.9 °F - 28.0 °F 48% 30.08 in 10.0 mi WNW 6.9 mph - N/A   Clear
7:54 PM 44.1 °F 40.8 °F 28.0 °F 53% 30.08 in 10.0 mi SW 5.8 mph - N/A   Clear
8:54 PM 39.9 °F 35.1 °F 28.0 °F 63% 30.09 in 10.0 mi SSW 6.9 mph - N/A   Clear
9:54 PM 39.9 °F 33.9 °F 27.0 °F 60% 30.07 in 10.0 mi SSW 9.2 mph - N/A   Clear
10:54 PM 37.0 °F 31.0 °F 27.0 °F 67% 30.08 in 10.0 mi South 8.1 mph - N/A   Clear
11:54 PM 34.0 °F 27.2 °F 26.1 °F 73% 30.07 in 10.0 mi South 8.1 mph - N/A   Clear